Time,TemperatureF,DewpointF,PressureIn,WindDirection,WindDirectionDegrees,WindSpeedMPH,WindSpeedGustMPH,Humidity,HourlyPrecipIn,Conditions,Clouds,dailyrainin,SoftwareType,DateUTC
2013-03-24 00:02:00,48.2,1.2,25.60,South,189,0.0,0.0,14,0.00,,---,0.00,VWS V14.01,2013-03-24 07:02:00,
2013-03-24 00:07:00,48.6,1.5,25.60,SSE,157,3.6,4.0,14,0.00,,---,0.00,VWS V14.01,2013-03-24 07:07:00,
2013-03-24 00:12:00,48.0,1.1,25.60,South,180,5.4,5.4,14,0.00,,---,0.00,VWS V14.01,2013-03-24 07:12:00,
2013-03-24 00:17:00,48.0,1.1,25.60,SSE,162,2.7,3.1,14,0.00,,---,0.00,VWS V14.01,2013-03-24 07:17:00,
2013-03-24 00:22:00,47.3,0.5,25.60,SSE,161,0.0,0.0,14,0.00,,---,0.00,VWS V14.01,2013-03-24 07:22:00,
2013-03-24 00:27:00,46.8,0.1,25.60,SSE,161,0.0,0.0,14,0.00,,---,0.00,VWS V14.01,2013-03-24 07:27:00,
2013-03-24 00:32:00,46.6,-0.1,25.60,SSE,161,0.0,2.7,14,0.00,,---,0.00,VWS V14.01,2013-03-24 07:32:00,
2013-03-24 00:37:00,46.0,1.0,25.60,SSE,161,0.0,0.0,15,0.00,,---,0.00,VWS V14.01,2013-03-24 07:37:00,
2013-03-24 00:42:00,45.5,0.6,25.60,SSE,161,0.0,0.0,15,0.00,,---,0.00,VWS V14.01,2013-03-24 07:42:00,
2013-03-24 00:47:00,45.1,0.3,25.60,SSE,162,0.0,0.0,15,0.00,,---,0.00,VWS V14.01,2013-03-24 07:47:00,
2013-03-24 00:52:00,44.8,0.0,25.60,SSE,161,0.0,0.0,15,0.00,,---,0.00,VWS V14.01,2013-03-24 07:52:00,
2013-03-24 00:57:00,44.6,-0.2,25.60,SSE,161,2.7,2.7,15,0.00,,---,0.00,VWS V14.01,2013-03-24 07:57:00,
2013-03-24 01:02:00,44.8,0.0,25.60,SSE,162,0.0,2.2,15,0.00,,---,0.00,VWS V14.01,2013-03-24 08:02:00,
2013-03-24 01:07:00,44.8,0.0,25.60,South,187,3.6,5.8,15,0.00,,---,0.00,VWS V14.01,2013-03-24 08:07:00,
2013-03-24 01:12:00,44.2,-0.5,25.60,South,188,0.0,3.1,15,0.00,,---,0.00,VWS V14.01,2013-03-24 08:12:00,
2013-03-24 01:17:00,44.2,-0.5,25.60,South,187,4.0,5.4,15,0.00,,---,0.00,VWS V14.01,2013-03-24 08:17:00,
2013-03-24 01:22:00,44.6,-0.2,25.60,South,188,2.2,3.6,15,0.00,,---,0.00,VWS V14.01,2013-03-24 08:22:00,
2013-03-24 01:27:00,44.1,-0.6,25.60,South,188,3.1,3.1,15,0.00,,---,0.00,VWS V14.01,2013-03-24 08:27:00,
2013-03-24 01:33:00,43.5,-1.1,25.60,South,188,0.0,0.0,15,0.00,,---,0.00,VWS V14.01,2013-03-24 08:33:00,
2013-03-24 01:38:00,43.3,-1.2,25.60,South,188,0.0,0.0,15,0.00,,---,0.00,VWS V14.01,2013-03-24 08:38:00,
2013-03-24 01:43:00,43.3,-1.2,25.60,South,188,0.0,0.0,15,0.00,,---,0.00,VWS V14.01,2013-03-24 08:43:00,
2013-03-24 01:48:00,43.3,-1.2,25.60,South,188,0.0,0.0,15,0.00,,---,0.00,VWS V14.01,2013-03-24 08:48:00,
2013-03-24 01:53:00,43.0,-1.5,25.60,South,188,0.0,0.0,15,0.00,,---,0.00,VWS V14.01,2013-03-24 08:53:00,
2013-03-24 01:58:00,43.2,-1.4,25.60,South,188,0.0,0.0,15,0.00,,---,0.00,VWS V14.01,2013-03-24 08:58:00,
2013-03-24 02:03:00,43.0,-1.5,25.60,South,188,0.0,0.0,15,0.00,,---,0.00,VWS V14.01,2013-03-24 09:03:00,
2013-03-24 02:08:00,43.5,-1.1,25.60,South,188,0.0,3.1,15,0.00,,---,0.00,VWS V14.01,2013-03-24 09:08:00,
2013-03-24 02:13:00,43.2,-1.4,25.60,South,188,0.0,0.0,15,0.00,,---,0.00,VWS V14.01,2013-03-24 09:13:00,
2013-03-24 02:18:00,42.6,-0.4,25.60,South,188,0.0,0.0,16,0.00,,---,0.00,VWS V14.01,2013-03-24 09:18:00,
2013-03-24 02:23:00,42.1,-0.9,25.60,South,188,0.0,0.0,16,0.00,,---,0.00,VWS V14.01,2013-03-24 09:23:00,
2013-03-24 02:28:00,41.9,-1.0,25.60,South,188,0.0,0.0,16,0.00,,---,0.00,VWS V14.01,2013-03-24 09:28:00,
2013-03-24 02:33:00,41.7,-1.2,25.60,South,188,0.0,0.0,16,0.00,,---,0.00,VWS V14.01,2013-03-24 09:33:00,
2013-03-24 02:38:00,41.4,-1.5,25.60,South,188,0.0,0.0,16,0.00,,---,0.00,VWS V14.01,2013-03-24 09:38:00,
2013-03-24 02:43:00,41.2,-1.6,25.60,South,188,0.0,0.0,16,0.00,,---,0.00,VWS V14.01,2013-03-24 09:43:00,
2013-03-24 02:48:00,40.6,-2.0,25.60,South,188,0.0,0.0,16,0.00,,---,0.00,VWS V14.01,2013-03-24 09:48:00,
2013-03-24 02:53:00,40.3,-2.3,25.60,South,188,0.0,0.0,16,0.00,,---,0.00,VWS V14.01,2013-03-24 09:53:00,
2013-03-24 02:58:00,40.1,-2.5,25.60,South,188,0.0,0.0,16,0.00,,---,0.00,VWS V14.01,2013-03-24 09:58:00,
2013-03-24 03:03:00,40.1,-2.5,25.60,South,188,0.0,0.0,16,0.00,,---,0.00,VWS V14.01,2013-03-24 10:03:00,
2013-03-24 03:08:00,40.1,-2.5,25.60,South,188,3.1,3.1,16,0.00,,---,0.00,VWS V14.01,2013-03-24 10:08:00,
2013-03-24 03:13:00,39.4,-3.1,25.60,SSE,150,4.0,4.0,16,0.00,,---,0.00,VWS V14.01,2013-03-24 10:13:00,
2013-03-24 03:18:00,39.2,-3.2,25.60,SSE,150,4.0,4.0,16,0.00,,---,0.00,VWS V14.01,2013-03-24 10:18:00,
2013-03-24 03:23:00,39.2,-3.2,25.60,SSE,168,3.6,3.6,16,0.00,,---,0.00,VWS V14.01,2013-03-24 10:23:00,
2013-03-24 03:28:00,39.0,-3.4,25.60,SSE,165,4.0,4.0,16,0.00,,---,0.00,VWS V14.01,2013-03-24 10:28:00,
2013-03-24 03:33:00,38.8,-3.5,25.60,SSE,165,2.7,3.6,16,0.00,,---,0.00,VWS V14.01,2013-03-24 10:33:00,
2013-03-24 03:38:00,38.8,-3.5,25.60,SSE,165,3.1,3.1,16,0.00,,---,0.00,VWS V14.01,2013-03-24 10:38:00,
2013-03-24 03:43:00,38.8,-3.5,25.60,SSE,165,2.7,3.6,16,0.00,,---,0.00,VWS V14.01,2013-03-24 10:43:00,
2013-03-24 03:48:00,38.8,-3.5,25.60,SSE,165,3.1,3.1,16,0.00,,---,0.00,VWS V14.01,2013-03-24 10:48:00,
2013-03-24 03:53:00,38.8,-3.5,25.60,SSE,165,3.6,3.6,16,0.00,,---,0.00,VWS V14.01,2013-03-24 10:53:00,
2013-03-24 03:58:00,38.5,-3.8,25.60,SSE,165,4.0,4.0,16,0.00,,---,0.00,VWS V14.01,2013-03-24 10:58:00,
2013-03-24 04:03:00,38.5,-3.8,25.60,SSE,164,2.7,3.1,16,0.00,,---,0.00,VWS V14.01,2013-03-24 11:03:00,
2013-03-24 04:08:00,38.5,-3.8,25.60,SSE,164,3.1,3.6,16,0.00,,---,0.00,VWS V14.01,2013-03-24 11:08:00,
2013-03-24 04:13:00,37.9,-4.2,25.60,SSE,164,2.7,2.7,16,0.00,,---,0.00,VWS V14.01,2013-03-24 11:13:00,
2013-03-24 04:18:00,37.8,-4.4,25.60,SSE,164,2.2,3.1,16,0.00,,---,0.00,VWS V14.01,2013-03-24 11:18:00,
2013-03-24 04:23:00,38.1,-4.1,25.60,South,179,5.8,6.3,16,0.00,,---,0.00,VWS V14.01,2013-03-24 11:23:00,
2013-03-24 04:28:00,38.1,-4.1,25.60,South,175,6.3,7.6,16,0.00,,---,0.00,VWS V14.01,2013-03-24 11:28:00,
2013-03-24 04:33:00,37.8,-4.4,25.60,South,182,2.7,2.7,16,0.00,,---,0.00,VWS V14.01,2013-03-24 11:33:00,
2013-03-24 04:38:00,37.8,-4.4,25.60,South,186,0.0,0.0,16,0.00,,---,0.00,VWS V14.01,2013-03-24 11:38:00,
2013-03-24 04:43:00,38.1,-4.1,25.60,South,186,2.7,3.6,16,0.00,,---,0.00,VWS V14.01,2013-03-24 11:43:00,
2013-03-24 04:48:00,38.5,-3.8,25.60,South,183,0.0,0.0,16,0.00,,---,0.00,VWS V14.01,2013-03-24 11:48:00,
2013-03-24 04:53:00,37.8,-4.4,25.60,South,183,0.0,0.0,16,0.00,,---,0.00,VWS V14.01,2013-03-24 11:53:00,
2013-03-24 04:58:00,36.9,-3.9,25.60,South,180,0.0,0.0,17,0.00,,---,0.00,VWS V14.01,2013-03-24 11:58:00,
2013-03-24 05:03:00,36.0,-4.6,25.60,South,180,0.0,0.0,17,0.00,,---,0.00,VWS V14.01,2013-03-24 12:03:00,
2013-03-24 05:08:00,35.8,-4.8,25.60,SSE,157,0.0,0.0,17,0.00,,---,0.00,VWS V14.01,2013-03-24 12:08:00,
2013-03-24 05:13:00,35.4,-5.1,25.60,SSE,156,0.0,0.0,17,0.00,,---,0.00,VWS V14.01,2013-03-24 12:13:00,
2013-03-24 05:18:00,35.1,-5.3,25.60,SSE,156,0.0,0.0,17,0.00,,---,0.00,VWS V14.01,2013-03-24 12:18:00,
2013-03-24 05:23:00,34.9,-5.5,25.60,SSE,156,2.7,3.1,17,0.00,,---,0.00,VWS V14.01,2013-03-24 12:23:00,
2013-03-24 05:28:00,34.9,-5.5,25.60,SSE,156,0.0,3.1,17,0.00,,---,0.00,VWS V14.01,2013-03-24 12:28:00,
2013-03-24 05:34:00,34.9,-5.5,25.60,SSE,156,3.6,3.6,17,0.00,,---,0.00,VWS V14.01,2013-03-24 12:34:00,
2013-03-24 05:39:00,35.1,-5.3,25.60,SSE,151,3.6,4.0,17,0.00,,---,0.00,VWS V14.01,2013-03-24 12:39:00,
2013-03-24 05:44:00,35.1,-5.3,25.60,SSE,147,3.6,4.0,17,0.00,,---,0.00,VWS V14.01,2013-03-24 12:44:00,
2013-03-24 05:49:00,34.7,-5.6,25.60,SSE,165,3.6,4.9,17,0.00,,---,0.00,VWS V14.01,2013-03-24 12:49:00,
2013-03-24 05:54:00,34.5,-5.8,25.60,South,175,4.0,4.0,17,0.00,,---,0.00,VWS V14.01,2013-03-24 12:54:00,
2013-03-24 05:59:00,34.5,-5.8,25.60,SSE,163,3.6,3.6,17,0.00,,---,0.00,VWS V14.01,2013-03-24 12:59:00,
2013-03-24 06:04:00,34.5,-5.8,25.60,South,176,5.4,5.8,17,0.00,,---,0.00,VWS V14.01,2013-03-24 13:04:00,
2013-03-24 06:09:00,34.5,-5.8,25.60,South,186,5.8,5.8,17,0.00,,---,0.00,VWS V14.01,2013-03-24 13:09:00,
2013-03-24 06:14:00,34.5,-5.8,25.60,South,172,4.0,4.9,17,0.00,,---,0.00,VWS V14.01,2013-03-24 13:14:00,
2013-03-24 06:19:00,34.5,-5.8,25.60,South,189,5.8,5.8,17,0.00,,---,0.00,VWS V14.01,2013-03-24 13:19:00,
2013-03-24 06:24:00,34.5,-5.8,25.60,South,184,4.9,5.4,17,0.00,,---,0.00,VWS V14.01,2013-03-24 13:24:00,
2013-03-24 06:29:00,34.5,-5.8,25.60,South,180,5.4,5.8,17,0.00,,---,0.00,VWS V14.01,2013-03-24 13:29:00,
2013-03-24 06:34:00,35.2,-5.2,25.60,South,187,5.4,5.4,17,0.00,,---,0.00,VWS V14.01,2013-03-24 13:34:00,
2013-03-24 06:39:00,35.8,-4.8,25.60,South,183,5.8,5.8,17,0.00,,---,0.00,VWS V14.01,2013-03-24 13:39:00,
2013-03-24 06:44:00,36.0,-4.6,25.60,South,184,6.3,6.3,17,0.00,,---,0.00,VWS V14.01,2013-03-24 13:44:00,
2013-03-24 06:49:00,36.3,-4.3,25.60,South,180,4.0,4.9,17,0.00,,---,0.00,VWS V14.01,2013-03-24 13:49:00,
2013-03-24 06:54:00,37.0,-3.7,25.60,South,180,6.3,7.2,17,0.00,,---,0.00,VWS V14.01,2013-03-24 13:54:00,
2013-03-24 06:59:00,37.9,-4.2,25.60,South,182,3.6,5.4,16,0.00,,---,0.00,VWS V14.01,2013-03-24 13:59:00,
2013-03-24 07:04:00,38.7,-3.7,25.60,South,170,5.4,5.8,16,0.00,,---,0.00,VWS V14.01,2013-03-24 14:04:00,
2013-03-24 07:09:00,39.6,-2.9,25.60,South,172,5.4,5.8,16,0.00,,---,0.00,VWS V14.01,2013-03-24 14:09:00,
2013-03-24 07:14:00,40.3,-2.3,25.60,South,170,5.4,6.3,16,0.00,,---,0.00,VWS V14.01,2013-03-24 14:14:00,
2013-03-24 07:19:00,41.2,-1.6,25.60,SSE,158,3.1,5.4,16,0.00,,---,0.00,VWS V14.01,2013-03-24 14:19:00,
2013-03-24 07:24:00,42.1,-0.9,25.60,SSE,163,3.6,4.5,16,0.00,,---,0.00,VWS V14.01,2013-03-24 14:24:00,
2013-03-24 07:29:00,43.3,-1.2,25.60,South,176,3.1,5.4,15,0.00,,---,0.00,VWS V14.01,2013-03-24 14:29:00,
2013-03-24 07:34:00,44.8,0.0,25.60,SSE,168,4.5,5.4,15,0.00,,---,0.00,VWS V14.01,2013-03-24 14:34:00,
2013-03-24 07:40:00,46.4,-0.2,25.60,SSE,167,5.4,5.4,14,0.00,,---,0.00,VWS V14.01,2013-03-24 14:40:00,
2013-03-24 07:45:00,47.7,0.8,25.60,South,174,5.4,5.8,14,0.00,,---,0.00,VWS V14.01,2013-03-24 14:45:00,
2013-03-24 07:50:00,48.9,1.8,25.60,SSE,168,5.8,6.3,14,0.00,,---,0.00,VWS V14.01,2013-03-24 14:50:00,
2013-03-24 07:55:00,50.4,3.0,25.63,SSE,167,7.2,7.2,14,0.00,,---,0.00,VWS V14.01,2013-03-24 14:55:00,
2013-03-24 08:00:00,51.6,4.0,25.63,South,179,6.3,6.3,14,0.00,,---,0.00,VWS V14.01,2013-03-24 15:00:00,
2013-03-24 08:05:00,52.9,3.4,25.63,South,177,4.9,4.9,13,0.00,,---,0.00,VWS V14.01,2013-03-24 15:05:00,
2013-03-24 08:10:00,53.6,4.0,25.63,South,176,5.4,6.3,13,0.00,,---,0.00,VWS V14.01,2013-03-24 15:10:00,
2013-03-24 08:15:00,54.9,5.0,25.63,SSE,158,5.8,6.3,13,0.00,,---,0.00,VWS V14.01,2013-03-24 15:15:00,
2013-03-24 08:20:00,56.3,4.4,25.63,South,187,0.0,0.0,12,0.00,,---,0.00,VWS V14.01,2013-03-24 15:20:00,
2013-03-24 08:25:00,57.0,4.9,25.63,SE,144,2.2,2.2,12,0.00,,---,0.00,VWS V14.01,2013-03-24 15:25:00,
2013-03-24 08:30:00,57.9,5.6,25.63,SE,143,4.0,5.4,12,0.00,,---,0.00,VWS V14.01,2013-03-24 15:30:00,
2013-03-24 08:35:00,58.1,5.8,25.63,SSE,152,5.4,5.8,12,0.00,,---,0.00,VWS V14.01,2013-03-24 15:35:00,
2013-03-24 08:40:00,59.2,6.6,25.63,SSE,160,4.9,4.9,12,0.00,,---,0.00,VWS V14.01,2013-03-24 15:40:00,
2013-03-24 08:45:00,59.7,7.0,25.63,SE,131,4.0,4.9,12,0.00,,---,0.00,VWS V14.01,2013-03-24 15:45:00,
2013-03-24 08:50:00,60.4,7.6,25.63,ESE,122,3.6,4.9,12,0.00,,---,0.00,VWS V14.01,2013-03-24 15:50:00,
2013-03-24 08:55:00,61.2,6.3,25.63,SSE,147,3.6,4.0,11,0.00,,---,0.00,VWS V14.01,2013-03-24 15:55:00,
2013-03-24 09:00:00,62.2,7.1,25.63,East,101,3.6,3.6,11,0.00,,---,0.00,VWS V14.01,2013-03-24 16:00:00,
2013-03-24 09:05:00,62.8,7.5,25.63,South,184,0.0,0.0,11,0.00,,---,0.00,VWS V14.01,2013-03-24 16:05:00,
2013-03-24 09:10:00,64.2,8.6,25.63,SE,140,2.7,2.7,11,0.00,,---,0.00,VWS V14.01,2013-03-24 16:10:00,
2013-03-24 09:15:00,64.4,6.7,25.63,SE,131,2.2,2.2,10,0.00,,---,0.00,VWS V14.01,2013-03-24 16:15:00,
2013-03-24 09:20:00,64.4,6.7,25.63,East,83,2.7,2.7,10,0.00,,---,0.00,VWS V14.01,2013-03-24 16:20:00,
2013-03-24 09:25:00,65.5,7.5,25.60,NNE,19,0.0,2.7,10,0.00,,---,0.00,VWS V14.01,2013-03-24 16:25:00,
2013-03-24 09:30:00,66.6,8.3,25.60,SSE,147,2.7,2.7,10,0.00,,---,0.00,VWS V14.01,2013-03-24 16:30:00,
2013-03-24 09:35:00,67.8,9.3,25.60,SSE,163,0.0,0.0,10,0.00,,---,0.00,VWS V14.01,2013-03-24 16:35:00,
2013-03-24 09:40:00,69.3,10.4,25.60,SSE,163,0.0,0.0,10,0.00,,---,0.00,VWS V14.01,2013-03-24 16:40:00,
2013-03-24 09:45:00,68.7,10.0,25.60,NNW,334,3.6,3.6,10,0.00,,---,0.00,VWS V14.01,2013-03-24 16:45:00,
2013-03-24 09:50:00,69.3,10.4,25.60,NW,319,0.0,0.0,10,0.00,,---,0.00,VWS V14.01,2013-03-24 16:50:00,
2013-03-24 09:55:00,69.4,10.5,25.60,WNW,299,0.0,0.0,10,0.00,,---,0.00,VWS V14.01,2013-03-24 16:55:00,
2013-03-24 10:00:00,70.2,8.7,25.60,NNW,338,0.0,0.0,9,0.00,,---,0.00,VWS V14.01,2013-03-24 17:00:00,
2013-03-24 10:05:00,68.2,9.6,25.60,NNW,330,6.3,8.1,10,0.00,,---,0.00,VWS V14.01,2013-03-24 17:05:00,
2013-03-24 10:10:00,69.3,10.4,25.60,NW,318,6.3,7.6,10,0.00,,---,0.00,VWS V14.01,2013-03-24 17:10:00,
2013-03-24 10:15:00,69.1,10.3,25.60,WNW,283,3.1,4.0,10,0.00,,---,0.00,VWS V14.01,2013-03-24 17:15:00,
2013-03-24 10:20:00,71.4,9.7,25.60,South,188,0.0,2.2,9,0.00,,---,0.00,VWS V14.01,2013-03-24 17:20:00,
2013-03-24 10:25:00,71.1,9.4,25.60,North,357,4.0,5.8,9,0.00,,---,0.00,VWS V14.01,2013-03-24 17:25:00,
2013-03-24 10:30:00,71.2,9.6,25.60,NW,321,0.0,0.0,9,0.00,,---,0.00,VWS V14.01,2013-03-24 17:30:00,
2013-03-24 10:35:00,72.1,10.2,25.60,WSW,258,2.2,5.8,9,0.00,,---,0.00,VWS V14.01,2013-03-24 17:35:00,
2013-03-24 10:40:00,71.8,10.0,25.60,West,268,0.0,2.7,9,0.00,,---,0.00,VWS V14.01,2013-03-24 17:40:00,
2013-03-24 10:45:00,72.1,10.2,25.60,NNW,328,5.4,5.4,9,0.00,,---,0.00,VWS V14.01,2013-03-24 17:45:00,
2013-03-24 10:50:00,73.8,8.8,25.60,West,276,4.0,4.0,8,0.00,,---,0.00,VWS V14.01,2013-03-24 17:50:00,
2013-03-24 10:56:00,73.9,9.0,25.60,NNE,12,4.0,4.0,8,0.00,,---,0.00,VWS V14.01,2013-03-24 17:56:00,
2013-03-24 11:01:00,74.8,9.6,25.60,South,173,4.0,4.0,8,0.00,,---,0.00,VWS V14.01,2013-03-24 18:01:00,
2013-03-24 11:06:00,73.2,11.1,25.60,ENE,68,5.8,8.1,9,0.00,,---,0.00,VWS V14.01,2013-03-24 18:06:00,
2013-03-24 11:11:00,72.9,10.8,25.57,NNW,328,3.1,4.0,9,0.00,,---,0.00,VWS V14.01,2013-03-24 18:11:00,
2013-03-24 11:16:00,73.9,9.0,25.57,NE,46,3.6,3.6,8,0.00,,---,0.00,VWS V14.01,2013-03-24 18:16:00,
2013-03-24 11:21:00,74.8,9.6,25.57,East,91,0.0,2.7,8,0.00,,---,0.00,VWS V14.01,2013-03-24 18:21:00,
2013-03-24 11:26:00,76.3,10.7,25.57,South,173,5.4,5.4,8,0.00,,---,0.00,VWS V14.01,2013-03-24 18:26:00,
2013-03-24 11:31:00,75.7,10.3,25.57,WSW,243,2.7,6.3,8,0.00,,---,0.00,VWS V14.01,2013-03-24 18:31:00,
2013-03-24 11:37:00,76.8,11.1,25.57,West,273,0.0,4.0,8,0.00,,---,0.00,VWS V14.01,2013-03-24 18:37:00,
2013-03-24 11:42:00,76.3,10.7,25.57,NW,308,3.6,4.0,8,0.00,,---,0.00,VWS V14.01,2013-03-24 18:42:00,
2013-03-24 11:47:00,75.4,10.0,25.57,NW,308,4.0,5.4,8,0.00,,---,0.00,VWS V14.01,2013-03-24 18:47:00,
2013-03-24 11:52:00,77.5,11.6,25.57,NNE,19,3.6,3.6,8,0.00,,---,0.00,VWS V14.01,2013-03-24 18:52:00,
2013-03-24 11:57:00,77.0,11.2,25.57,North,1,4.0,6.3,8,0.00,,---,0.00,VWS V14.01,2013-03-24 18:57:00,
2013-03-24 12:02:00,75.6,10.2,25.57,NNE,32,4.9,5.4,8,0.00,,---,0.00,VWS V14.01,2013-03-24 19:02:00,
2013-03-24 12:07:00,77.2,11.4,25.57,ESE,104,2.7,4.0,8,0.00,,---,0.00,VWS V14.01,2013-03-24 19:07:00,
2013-03-24 12:13:00,78.4,12.3,25.57,North,2,0.0,0.0,8,0.00,,---,0.00,VWS V14.01,2013-03-24 19:13:00,
2013-03-24 12:18:00,78.3,12.2,25.57,North,353,0.0,4.0,8,0.00,,---,0.00,VWS V14.01,2013-03-24 19:18:00,
2013-03-24 12:23:00,79.0,9.7,25.57,NNW,327,3.1,3.1,7,0.00,,---,0.00,VWS V14.01,2013-03-24 19:23:00,
2013-03-24 12:28:00,76.8,11.1,25.57,ESE,104,4.0,5.4,8,0.00,,---,0.00,VWS V14.01,2013-03-24 19:28:00,
2013-03-24 12:33:00,77.5,11.6,25.57,SSE,151,3.1,5.4,8,0.00,,---,0.00,VWS V14.01,2013-03-24 19:33:00,
2013-03-24 12:38:00,77.9,11.9,25.57,North,353,4.9,5.4,8,0.00,,---,0.00,VWS V14.01,2013-03-24 19:38:00,
2013-03-24 12:43:00,75.6,10.2,25.54,NNE,23,3.6,6.3,8,0.00,,---,0.00,VWS V14.01,2013-03-24 19:43:00,
2013-03-24 12:48:00,77.2,11.4,25.54,North,357,5.8,5.8,8,0.00,,---,0.00,VWS V14.01,2013-03-24 19:48:00,
2013-03-24 12:53:00,76.6,11.0,25.54,NE,40,3.1,5.4,8,0.00,,---,0.00,VWS V14.01,2013-03-24 19:53:00,
2013-03-24 12:58:00,75.2,9.9,25.54,NNE,27,4.9,4.9,8,0.00,,---,0.00,VWS V14.01,2013-03-24 19:58:00,
2013-03-24 13:03:00,75.9,10.4,25.54,WNW,293,6.3,6.3,8,0.00,,---,0.00,VWS V14.01,2013-03-24 20:03:00,
2013-03-24 13:08:00,76.5,10.8,25.54,NW,316,10.5,10.5,8,0.00,,---,0.00,VWS V14.01,2013-03-24 20:08:00,
2013-03-24 13:13:00,77.0,11.2,25.54,NNW,328,2.7,8.7,8,0.00,,---,0.00,VWS V14.01,2013-03-24 20:13:00,
2013-03-24 13:18:00,77.7,11.8,25.54,NE,43,2.7,3.6,8,0.00,,---,0.00,VWS V14.01,2013-03-24 20:18:00,
2013-03-24 13:23:00,78.8,9.6,25.54,West,261,4.0,4.0,7,0.00,,---,0.00,VWS V14.01,2013-03-24 20:23:00,
2013-03-24 13:28:00,78.6,12.4,25.51,South,177,3.1,6.3,8,0.00,,---,0.00,VWS V14.01,2013-03-24 20:28:00,
2013-03-24 13:33:00,79.0,9.7,25.51,SE,127,3.6,3.6,7,0.00,,---,0.00,VWS V14.01,2013-03-24 20:33:00,
2013-03-24 13:38:00,79.5,10.1,25.51,SSW,210,3.6,5.4,7,0.00,,---,0.00,VWS V14.01,2013-03-24 20:38:00,
2013-03-24 13:43:00,80.4,10.8,25.51,NW,308,3.1,4.0,7,0.00,,---,0.00,VWS V14.01,2013-03-24 20:43:00,
2013-03-24 13:48:00,81.5,11.6,25.51,South,191,3.6,3.6,7,0.00,,---,0.00,VWS V14.01,2013-03-24 20:48:00,
2013-03-24 13:53:00,79.5,10.1,25.51,WSW,239,3.6,5.8,7,0.00,,---,0.00,VWS V14.01,2013-03-24 20:53:00,
2013-03-24 13:58:00,79.3,10.0,25.51,NNE,13,3.6,5.8,7,0.00,,---,0.00,VWS V14.01,2013-03-24 20:58:00,
2013-03-24 14:03:00,78.4,12.3,25.51,North,350,3.6,3.6,8,0.00,,---,0.00,VWS V14.01,2013-03-24 21:03:00,
2013-03-24 14:08:00,79.9,10.4,25.51,NNE,20,2.7,2.7,7,0.00,,---,0.00,VWS V14.01,2013-03-24 21:08:00,
2013-03-24 14:13:00,79.0,9.7,25.48,North,0,2.7,4.0,7,0.00,,---,0.00,VWS V14.01,2013-03-24 21:13:00,
2013-03-24 14:18:00,78.8,9.6,25.48,North,9,0.0,4.9,7,0.00,,---,0.00,VWS V14.01,2013-03-24 21:18:00,
2013-03-24 14:23:00,76.6,11.0,25.48,NNE,31,4.9,7.6,8,0.00,,---,0.00,VWS V14.01,2013-03-24 21:23:00,
2013-03-24 14:28:00,77.7,11.8,25.48,East,98,5.8,8.3,8,0.00,,---,0.00,VWS V14.01,2013-03-24 21:28:00,
2013-03-24 14:33:00,78.4,12.3,25.48,ENE,75,2.2,4.9,8,0.00,,---,0.00,VWS V14.01,2013-03-24 21:33:00,
2013-03-24 14:38:00,79.0,9.7,25.48,NNE,27,6.3,6.3,7,0.00,,---,0.00,VWS V14.01,2013-03-24 21:38:00,
2013-03-24 14:43:00,77.7,11.8,25.48,North,8,6.3,6.3,8,0.00,,---,0.00,VWS V14.01,2013-03-24 21:43:00,
2013-03-24 14:48:00,78.3,12.2,25.48,NNW,332,3.1,3.1,8,0.00,,---,0.00,VWS V14.01,2013-03-24 21:48:00,
2013-03-24 14:53:00,79.5,10.1,25.48,WNW,299,4.9,4.9,7,0.00,,---,0.00,VWS V14.01,2013-03-24 21:53:00,
2013-03-24 14:58:00,77.2,11.4,25.48,NNE,18,6.3,11.9,8,0.00,,---,0.00,VWS V14.01,2013-03-24 21:58:00,
2013-03-24 15:04:00,77.4,11.5,25.48,North,353,7.6,8.7,8,0.00,,---,0.00,VWS V14.01,2013-03-24 22:04:00,
2013-03-24 15:09:00,76.8,11.1,25.48,NNW,338,5.4,10.5,8,0.00,,---,0.00,VWS V14.01,2013-03-24 22:09:00,
2013-03-24 15:14:00,75.9,10.4,25.48,NW,316,6.7,17.4,8,0.00,,---,0.00,VWS V14.01,2013-03-24 22:14:00,
2013-03-24 15:19:00,77.0,11.2,25.48,West,270,8.3,10.1,8,0.00,,---,0.00,VWS V14.01,2013-03-24 22:19:00,
2013-03-24 15:24:00,76.1,10.6,25.48,WNW,283,8.7,11.9,8,0.00,,---,0.00,VWS V14.01,2013-03-24 22:24:00,
2013-03-24 15:29:00,76.3,10.7,25.48,NW,307,4.0,4.0,8,0.00,,---,0.00,VWS V14.01,2013-03-24 22:29:00,
2013-03-24 15:34:00,76.1,10.6,25.48,WSW,251,11.0,11.0,8,0.00,,---,0.00,VWS V14.01,2013-03-24 22:34:00,
2013-03-24 15:39:00,76.6,11.0,25.48,WNW,284,7.6,7.6,8,0.00,,---,0.00,VWS V14.01,2013-03-24 22:39:00,
2013-03-24 15:44:00,75.6,10.2,25.48,NW,305,3.6,5.8,8,0.00,,---,0.00,VWS V14.01,2013-03-24 22:44:00,
2013-03-24 15:49:00,75.0,9.8,25.48,NNW,332,8.3,12.3,8,0.00,,---,0.00,VWS V14.01,2013-03-24 22:49:00,
2013-03-24 15:54:00,74.7,9.5,25.48,WNW,291,3.6,3.6,8,0.00,,---,0.00,VWS V14.01,2013-03-24 22:54:00,
2013-03-24 15:59:00,74.8,9.6,25.48,WNW,285,2.7,2.7,8,0.00,,---,0.00,VWS V14.01,2013-03-24 22:59:00,
2013-03-24 16:04:00,75.0,9.8,25.48,West,268,4.0,5.4,8,0.00,,---,0.00,VWS V14.01,2013-03-24 23:04:00,
2013-03-24 16:09:00,75.6,10.2,25.48,NW,316,6.3,6.3,8,0.00,,---,0.00,VWS V14.01,2013-03-24 23:09:00,
2013-03-24 16:14:00,73.9,9.0,25.48,WNW,299,8.1,8.1,8,0.00,,---,0.00,VWS V14.01,2013-03-24 23:14:00,
2013-03-24 16:19:00,74.8,9.6,25.48,WNW,298,2.7,2.7,8,0.00,,---,0.00,VWS V14.01,2013-03-24 23:19:00,
2013-03-24 16:24:00,74.3,9.2,25.48,WNW,289,3.1,8.3,8,0.00,,---,0.00,VWS V14.01,2013-03-24 23:24:00,
2013-03-24 16:29:00,74.1,9.1,25.48,WNW,288,6.3,8.1,8,0.00,,---,0.00,VWS V14.01,2013-03-24 23:29:00,
2013-03-24 16:34:00,73.8,8.8,25.48,West,273,5.8,7.6,8,0.00,,---,0.00,VWS V14.01,2013-03-24 23:34:00,
2013-03-24 16:39:00,73.2,11.1,25.48,WNW,284,5.8,8.3,9,0.00,,---,0.00,VWS V14.01,2013-03-24 23:39:00,
2013-03-24 16:44:00,72.5,10.5,25.48,West,278,3.6,6.3,9,0.00,,---,0.00,VWS V14.01,2013-03-24 23:44:00,
2013-03-24 16:49:00,72.0,10.1,25.48,WNW,287,13.6,15.4,9,0.00,,---,0.00,VWS V14.01,2013-03-24 23:49:00,
2013-03-24 16:54:00,72.1,10.2,25.48,NW,314,10.1,10.1,9,0.00,,---,0.00,VWS V14.01,2013-03-24 23:54:00,
2013-03-24 16:59:00,71.2,9.6,25.48,West,280,8.1,8.1,9,0.00,,---,0.00,VWS V14.01,2013-03-24 23:59:00,
2013-03-24 17:04:00,70.7,9.1,25.48,NW,319,13.2,15.0,9,0.00,,---,0.00,VWS V14.01,2013-03-25 00:04:00,
2013-03-24 17:09:00,70.3,8.9,25.48,NW,315,12.8,12.8,9,0.00,,---,0.00,VWS V14.01,2013-03-25 00:09:00,
2013-03-24 17:14:00,70.3,8.9,25.48,WNW,292,8.3,10.5,9,0.00,,---,0.00,VWS V14.01,2013-03-25 00:14:00,
2013-03-24 17:19:00,70.2,8.7,25.48,WNW,302,17.4,17.4,9,0.00,,---,0.00,VWS V14.01,2013-03-25 00:19:00,
2013-03-24 17:24:00,70.0,8.6,25.48,WNW,287,2.7,6.3,9,0.00,,---,0.00,VWS V14.01,2013-03-25 00:24:00,
2013-03-24 17:29:00,69.8,8.5,25.48,West,272,6.7,10.5,9,0.00,,---,0.00,VWS V14.01,2013-03-25 00:29:00,
2013-03-24 17:34:00,69.6,10.7,25.48,West,278,6.3,8.7,10,0.00,,---,0.00,VWS V14.01,2013-03-25 00:34:00,
2013-03-24 17:39:00,69.1,10.3,25.48,WNW,292,14.5,14.5,10,0.00,,---,0.00,VWS V14.01,2013-03-25 00:39:00,
2013-03-24 17:44:00,68.7,10.0,25.48,WNW,299,7.6,8.3,10,0.00,,---,0.00,VWS V14.01,2013-03-25 00:44:00,
2013-03-24 17:50:00,68.5,9.8,25.48,NNW,330,8.3,11.0,10,0.00,,---,0.00,VWS V14.01,2013-03-25 00:50:00,
2013-03-24 17:55:00,67.8,9.3,25.48,NW,309,10.1,13.6,10,0.00,,---,0.00,VWS V14.01,2013-03-25 00:55:00,
2013-03-24 18:00:00,67.5,9.0,25.48,NNE,21,8.1,11.0,10,0.00,,---,0.00,VWS V14.01,2013-03-25 01:00:00,
2013-03-24 18:05:00,67.1,8.7,25.48,NNW,335,10.5,13.2,10,0.00,,---,0.00,VWS V14.01,2013-03-25 01:05:00,
2013-03-24 18:10:00,66.7,8.5,25.48,NW,308,5.4,10.1,10,0.00,,---,0.00,VWS V14.01,2013-03-25 01:10:00,
2013-03-24 18:15:00,66.4,8.2,25.48,WNW,298,8.3,14.1,10,0.00,,---,0.00,VWS V14.01,2013-03-25 01:15:00,
2013-03-24 18:20:00,65.7,7.6,25.48,NW,325,12.8,12.8,10,0.00,,---,0.00,VWS V14.01,2013-03-25 01:20:00,
2013-03-24 18:25:00,65.1,7.2,25.48,NW,314,9.6,12.8,10,0.00,,---,0.00,VWS V14.01,2013-03-25 01:25:00,
2013-03-24 18:30:00,64.6,6.8,25.48,NW,314,12.3,13.2,10,0.00,,---,0.00,VWS V14.01,2013-03-25 01:30:00,
2013-03-24 18:35:00,64.2,8.6,25.48,WNW,297,8.7,11.0,11,0.00,,---,0.00,VWS V14.01,2013-03-25 01:35:00,
2013-03-24 18:40:00,63.9,8.4,25.51,WNW,299,12.8,12.8,11,0.00,,---,0.00,VWS V14.01,2013-03-25 01:40:00,
2013-03-24 18:45:00,63.5,8.1,25.51,WNW,292,8.7,14.5,11,0.00,,---,0.00,VWS V14.01,2013-03-25 01:45:00,
2013-03-24 18:50:00,63.1,7.8,25.51,NW,305,14.5,14.5,11,0.00,,---,0.00,VWS V14.01,2013-03-25 01:50:00,
2013-03-24 18:55:00,62.8,7.5,25.51,NW,313,5.8,5.8,11,0.00,,---,0.00,VWS V14.01,2013-03-25 01:55:00,
2013-03-24 19:00:00,62.4,7.2,25.51,NNW,328,7.6,10.5,11,0.00,,---,0.00,VWS V14.01,2013-03-25 02:00:00,
2013-03-24 19:05:00,62.2,7.1,25.51,NW,304,8.3,8.3,11,0.00,,---,0.00,VWS V14.01,2013-03-25 02:05:00,
2013-03-24 19:10:00,61.9,6.8,25.51,NW,321,5.8,7.6,11,0.00,,---,0.00,VWS V14.01,2013-03-25 02:10:00,
2013-03-24 19:15:00,61.5,6.5,25.51,WNW,301,11.0,11.0,11,0.00,,---,0.00,VWS V14.01,2013-03-25 02:15:00,
2013-03-24 19:20:00,61.0,6.1,25.51,NW,326,4.9,8.1,11,0.00,,---,0.00,VWS V14.01,2013-03-25 02:20:00,
2013-03-24 19:25:00,60.4,7.6,25.51,NNW,330,5.4,6.3,12,0.00,,---,0.00,VWS V14.01,2013-03-25 02:25:00,
2013-03-24 19:30:00,60.3,7.5,25.51,NW,313,5.8,6.3,12,0.00,,---,0.00,VWS V14.01,2013-03-25 02:30:00,
2013-03-24 19:35:00,59.7,7.0,25.51,NW,325,5.4,5.4,12,0.00,,---,0.00,VWS V14.01,2013-03-25 02:35:00,
2013-03-24 19:40:00,59.0,6.5,25.51,North,353,4.9,4.9,12,0.00,,---,0.00,VWS V14.01,2013-03-25 02:40:00,
2013-03-24 19:45:00,58.1,5.8,25.51,North,353,3.6,3.6,12,0.00,,---,0.00,VWS V14.01,2013-03-25 02:45:00,
2013-03-24 19:50:00,57.7,5.5,25.51,NNW,346,3.1,4.9,12,0.00,,---,0.00,VWS V14.01,2013-03-25 02:50:00,
2013-03-24 19:55:00,57.2,5.1,25.54,NNW,331,3.6,4.0,12,0.00,,---,0.00,VWS V14.01,2013-03-25 02:55:00,
2013-03-24 20:00:00,56.8,4.8,25.54,NNW,327,3.6,4.9,12,0.00,,---,0.00,VWS V14.01,2013-03-25 03:00:00,
2013-03-24 20:05:00,56.5,4.5,25.54,NW,313,3.6,4.9,12,0.00,,---,0.00,VWS V14.01,2013-03-25 03:05:00,
2013-03-24 20:10:00,55.9,4.1,25.54,NW,315,5.4,5.4,12,0.00,,---,0.00,VWS V14.01,2013-03-25 03:10:00,
2013-03-24 20:15:00,55.6,3.8,25.54,NW,311,4.0,5.4,12,0.00,,---,0.00,VWS V14.01,2013-03-25 03:15:00,
2013-03-24 20:20:00,55.2,5.2,25.54,NW,310,5.4,5.8,13,0.00,,---,0.00,VWS V14.01,2013-03-25 03:20:00,
2013-03-24 20:26:00,55.0,5.1,25.54,NW,320,5.4,5.8,13,0.00,,---,0.00,VWS V14.01,2013-03-25 03:26:00,
2013-03-24 20:31:00,54.7,4.8,25.54,NW,308,5.4,6.3,13,0.00,,---,0.00,VWS V14.01,2013-03-25 03:31:00,
2013-03-24 20:35:00,54.9,5.0,25.54,NW,309,6.3,6.3,13,0.00,,---,0.00,VWS V14.01,2013-03-25 03:35:00,
2013-03-24 20:41:00,54.9,5.0,25.54,NW,314,5.8,5.8,13,0.00,,---,0.00,VWS V14.01,2013-03-25 03:41:00,
2013-03-24 20:46:00,55.0,5.1,25.54,NW,306,3.6,6.3,13,0.00,,---,0.00,VWS V14.01,2013-03-25 03:46:00,
2013-03-24 20:51:00,54.7,4.8,25.54,NW,309,3.1,5.4,13,0.00,,---,0.00,VWS V14.01,2013-03-25 03:51:00,
2013-03-24 20:56:00,54.3,4.5,25.54,NW,308,3.1,3.1,13,0.00,,---,0.00,VWS V14.01,2013-03-25 03:56:00,
2013-03-24 21:00:00,54.1,4.4,25.54,NW,307,5.8,5.8,13,0.00,,---,0.00,VWS V14.01,2013-03-25 04:00:00,
2013-03-24 21:05:00,54.1,4.4,25.54,WNW,295,4.0,4.0,13,0.00,,---,0.00,VWS V14.01,2013-03-25 04:05:00,
2013-03-24 21:10:00,54.1,4.4,25.54,WNW,303,2.7,3.6,13,0.00,,---,0.00,VWS V14.01,2013-03-25 04:10:00,
2013-03-24 21:15:00,54.0,4.2,25.54,WNW,291,3.1,3.1,13,0.00,,---,0.00,VWS V14.01,2013-03-25 04:15:00,
2013-03-24 21:20:00,54.0,4.2,25.54,WNW,283,0.0,0.0,13,0.00,,---,0.00,VWS V14.01,2013-03-25 04:20:00,
2013-03-24 21:25:00,54.0,4.2,25.54,WNW,288,2.7,2.7,13,0.00,,---,0.00,VWS V14.01,2013-03-25 04:25:00,
2013-03-24 21:30:00,53.8,4.1,25.54,WNW,283,0.0,0.0,13,0.00,,---,0.00,VWS V14.01,2013-03-25 04:30:00,
2013-03-24 21:35:00,53.4,3.8,25.54,WNW,283,0.0,0.0,13,0.00,,---,0.00,VWS V14.01,2013-03-25 04:35:00,
2013-03-24 21:40:00,53.1,3.5,25.57,WNW,290,2.2,2.7,13,0.00,,---,0.00,VWS V14.01,2013-03-25 04:40:00,
2013-03-24 21:46:00,52.3,3.0,25.57,NNE,25,3.6,4.5,13,0.00,,---,0.00,VWS V14.01,2013-03-25 04:46:00,
2013-03-24 21:51:00,52.9,3.4,25.57,NNE,18,5.4,5.8,13,0.00,,---,0.00,VWS V14.01,2013-03-25 04:51:00,
2013-03-24 21:56:00,52.9,3.4,25.57,NW,326,4.0,5.4,13,0.00,,---,0.00,VWS V14.01,2013-03-25 04:56:00,
2013-03-24 22:01:00,52.3,3.0,25.57,NW,321,4.0,4.0,13,0.00,,---,0.00,VWS V14.01,2013-03-25 05:01:00,
2013-03-24 22:06:00,51.3,3.7,25.57,NNE,15,2.7,4.0,14,0.00,,---,0.00,VWS V14.01,2013-03-25 05:06:00,
2013-03-24 22:11:00,50.4,3.0,25.57,NNE,17,2.2,2.7,14,0.00,,---,0.00,VWS V14.01,2013-03-25 05:11:00,
2013-03-24 22:16:00,50.7,3.3,25.57,NW,313,3.1,3.6,14,0.00,,---,0.00,VWS V14.01,2013-03-25 05:16:00,
2013-03-24 22:21:00,50.9,3.4,25.57,NNW,346,2.7,2.7,14,0.00,,---,0.00,VWS V14.01,2013-03-25 05:21:00,
2013-03-24 22:26:00,50.9,3.4,25.57,NNW,338,2.7,2.7,14,0.00,,---,0.00,VWS V14.01,2013-03-25 05:26:00,
2013-03-24 22:31:00,50.7,3.3,25.57,NNW,338,2.7,3.1,14,0.00,,---,0.00,VWS V14.01,2013-03-25 05:31:00,
2013-03-24 22:37:00,50.5,3.1,25.57,NNW,338,0.0,0.0,14,0.00,,---,0.00,VWS V14.01,2013-03-25 05:37:00,
2013-03-24 22:42:00,50.0,2.7,25.57,East,89,4.0,4.0,14,0.00,,---,0.00,VWS V14.01,2013-03-25 05:42:00,
2013-03-24 22:47:00,50.7,3.3,25.57,NE,38,3.1,3.6,14,0.00,,---,0.00,VWS V14.01,2013-03-25 05:47:00,
2013-03-24 22:52:00,51.1,3.6,25.57,ENE,61,2.7,2.7,14,0.00,,---,0.00,VWS V14.01,2013-03-25 05:52:00,
2013-03-24 22:57:00,50.4,3.0,25.57,ENE,61,2.7,2.7,14,0.00,,---,0.00,VWS V14.01,2013-03-25 05:57:00,
2013-03-24 23:02:00,50.9,3.4,25.57,NE,56,3.6,3.6,14,0.00,,---,0.00,VWS V14.01,2013-03-25 06:02:00,
2013-03-24 23:07:00,51.3,3.7,25.57,NE,44,4.0,4.9,14,0.00,,---,0.00,VWS V14.01,2013-03-25 06:07:00,
2013-03-24 23:12:00,50.9,3.4,25.57,ENE,60,0.0,0.0,14,0.00,,---,0.00,VWS V14.01,2013-03-25 06:12:00,
2013-03-24 23:17:00,50.7,3.3,25.57,NNE,23,3.1,3.1,14,0.00,,---,0.00,VWS V14.01,2013-03-25 06:17:00,
2013-03-24 23:22:00,50.7,3.3,25.57,NE,47,2.7,2.7,14,0.00,,---,0.00,VWS V14.01,2013-03-25 06:22:00,
2013-03-24 23:27:00,50.7,3.3,25.57,ENE,60,4.0,4.0,14,0.00,,---,0.00,VWS V14.01,2013-03-25 06:27:00,
2013-03-24 23:32:00,50.5,3.1,25.57,NE,56,3.1,3.6,14,0.00,,---,0.00,VWS V14.01,2013-03-25 06:32:00,
2013-03-24 23:37:00,50.4,3.0,25.57,NE,56,2.7,2.7,14,0.00,,---,0.00,VWS V14.01,2013-03-25 06:37:00,
2013-03-24 23:42:00,50.2,2.8,25.57,NE,56,0.0,0.0,14,0.00,,---,0.00,VWS V14.01,2013-03-25 06:42:00,
2013-03-24 23:47:00,50.4,3.0,25.57,North,1,2.7,2.7,14,0.00,,---,0.00,VWS V14.01,2013-03-25 06:47:00,
2013-03-24 23:52:00,50.5,3.1,25.57,North,1,2.7,2.7,14,0.00,,---,0.00,VWS V14.01,2013-03-25 06:52:00,
2013-03-24 23:57:00,50.9,3.4,25.57,North,1,0.0,0.0,14,0.00,,---,0.00,VWS V14.01,2013-03-25 06:57:00,